Starlink 5187

operational
NORAD ID: 54065 Int'l Des: 2022-136 Owner: SPXS Country: US Constellation: starlink
LEOCIRCULAR

关于 Starlink 5187

正在加载描述...

实时位置

正在加载3D地球...

即将过境

高度历史

Altitude vs Time

uPlot chart will show altitude changes over time

两行轨道根数

1 54065U 22136Q 25352.26468034 -.00000032 00000-0 16082-4 0 9991
2 54065 53.2188 349.5047 0001329 89.9520 270.1625 15.08841659174551
Epoch: Dec 18, 2025 • Age: 13 hours

当前状态

高度 545.4 km
速度 7.60 km/s
星下点 53.17°N, 64.08°E
发射日期 Oct 20, 2022
运行时间 3.1 years
类型 internet

技术详情

分类 Payload
质量 305.00 kg
干质量 290.00 kg
总质量 305.00 kg
长度 0.20 m
直径 2.80 m
跨度 9.00 m
形状 Box + pan
制造商 SPXS
平台类型 Starlink
阶段状态 In Orbit
所有者/国家 SPXS/US

大型星座

Loading constellations...